This is the latest recevied weather packets stored in our database for station/object M0UPS-13. If no packets are shown the sender has not sent any weather packets the latest 10 day(s).
| Time | Temp. | Humidity | Pressure | Rain* | Wind** | Luminosity | Snow |
|---|---|---|---|---|---|---|---|
| 1777962002 | 12.22° C | 80% | 1013.8 hPa | 0 mm | - | 53 W/m² | - |
| 1777961703 | 12.22° C | 81% | 1013.7 hPa | 0 mm | - | 51 W/m² | - |
| 1777961402 | 12.22° C | 82% | 1013.7 hPa | 0 mm | - | 49 W/m² | - |
| 1777961103 | 12.22° C | 83% | 1013.6 hPa | 0 mm | - | 54 W/m² | - |
| 1777960803 | 11.67° C | 84% | 1013.5 hPa | 0 mm | - | 44 W/m² | - |
| 1777960503 | 11.67° C | 84% | 1013.7 hPa | 0 mm | - | 50 W/m² | - |
| 1777960203 | 11.67° C | 84% | 1013.6 hPa | 0 mm | - | 47 W/m² | - |
| 1777959902 | 11.67° C | 84% | 1013.8 hPa | 0 mm | - | 43 W/m² | - |
| 1777959603 | 11.67° C | 85% | 1013.5 hPa | 0 mm | - | 37 W/m² | - |
| 1777959302 | 11.67° C | 85% | 1013.8 hPa | 0 mm | - | 35 W/m² | - |
| 1777959002 | 11.67° C | 85% | 1013.7 hPa | 0 mm | - | 38 W/m² | - |
| 1777958702 | 11.67° C | 85% | 1013.8 hPa | 0 mm | - | 36 W/m² | - |
| 1777958402 | 11.67° C | 85% | 1013.8 hPa | 0 mm | - | 26 W/m² | - |
| 1777958103 | 11.67° C | 85% | 1013.8 hPa | 0 mm | - | 23 W/m² | - |
| 1777957803 | 11.67° C | 85% | 1013.6 hPa | 0 mm | - | 19 W/m² | - |
| 1777957502 | 11.67° C | 85% | 1013.7 hPa | 0 mm | - | 21 W/m² | - |
| 1777957203 | 11.67° C | 86% | 1013.8 hPa | 0 mm | - | 17 W/m² | - |
| 1777956903 | 11.67° C | 86% | 1013.8 hPa | 0 mm | - | 12 W/m² | - |
| 1777956603 | 11.67° C | 86% | 1013.8 hPa | 0 mm | - | 8 W/m² | - |
| 1777956303 | 11.67° C | 86% | 1013.8 hPa | 0 mm | - | 5 W/m² | - |
| 1777956003 | 11.67° C | 85% | 1013.7 hPa | 0 mm | - | 3 W/m² | - |
| 1777955702 | 11.67° C | 86% | 1013.8 hPa | 0 mm | - | 1 W/m² | - |
| 1777955402 | 11.67° C | 86% | 1013.7 hPa | 0 mm | - | 1 W/m² | - |
| 1777955102 | 11.67° C | 87% | 1013.8 hPa | 0 mm | - | 0 W/m² | - |
| 1777954802 | 11.67° C | 87% | 1013.8 hPa | 0 mm | - | 0 W/m² | - |
* Rain latest hour (hover to see other rain measurements)
** Current wind speed in m/s (hover to see current wind gust speed)